Voltar ao catálogo

NOAA 5

AtivoMeteoSSO
NORAD 9057·PAYLOAD·🇺🇸 United States

Lançado Jul 29, 1976 de Vandenberg Space Force Base

Loading…

Próximas Passagens (próximas 24 horas)

TLE

AtualizadoSource: Space-Track

Época: Sep 14, 2026, 09:59 UTC

1 09057U 76077A   26257.41619771 -.00000041  00000-0  35486-4 0  9992
2 09057 102.3131 244.0565 0009620 175.0316 352.4527 12.37834287265512

Acompanhe NOAA 5 em tempo real com AllMySat

Download on the App Store